Regional Weather Roundup
Issued by NWS Newport/Morehead, NC

Current Version | Previous Version | Text Only | Print | Product List | Glossary On
Versions: 1 2 3 4 5 6 7 8 9 10 11 12 13 14 15 16 17 18 19 20 21 22 23 24 25 26 27 28 29 30 31 32 33 34 35 36 37 38 39 40 41 42 43 44 45 46 47 48 49 50
000
ASUS42 KMHX 252110
RWRMHX
WEATHER ROUNDUP FOR EASTERN NORTH CAROLINA
NATIONAL WEATHER SERVICE NEWPORT/MOREHEAD CITY NC
400 PM EST TUE NOV 25 2014

NOTE: "FAIR" INDICATES FEW OR NO CLOUDS BELOW 12,000 FEET
WITH NO SIGNIFICANT WEATHER AND/OR OBSTRUCTIONS TO VISIBILITY

NCZ015>017-031-032-045>047-102-103-252200-
NORTH COAST

CITY           SKY/WX    TMP DP  RH WIND       PRES   REMARKS
EDENTON        CLOUDY    62  60  94 W3        30.05R
ELIZABETH CITY CLOUDY    65  60  84 CALM      30.02S
KITTY HAWK     CLOUDY    61  60  97 S5        30.04R FOG
MANTEO         CLOUDY    60  58  95 S9        30.07R

$$

NCZ045>047-081-094-103-104-252200-
CENTRAL COAST

CITY           SKY/WX    TMP DP  RH WIND       PRES   REMARKS
FRISCO         LGT RAIN  62  62 100 S3        30.05R FOG
SWANQUARTER      N/A     61 N/A N/A SE3       30.00F

$$

NCZ095-097-098-100-101-252200-
SOUTHERN COAST

CITY           SKY/WX    TMP DP  RH WIND       PRES   REMARKS
BEAUFORT       CLOUDY    64  62  93 CALM      30.03F
CEDAR ISLAND     N/A     59 N/A N/A NE5G10    30.09S
JACKSONVILLE   CLOUDY    65  61  87 NE5       30.02R
PINEY ISLAND   CLOUDY    66  61  84 E6        30.02F
WILMINGTON     CLOUDY    66  63  90 N5        30.01S


$$

NCZ011>013-027>030-043-044-078>080-089-090>093-098-252200-
COASTAL PLAIN

CITY           SKY/WX    TMP DP  RH WIND       PRES   REMARKS
AHOSKIE        CLOUDY    56  54  93 CALM      30.06R
CLINTON        DRIZZLE   62  62 100 CALM      30.03F
ELIZABETHTOWN  CLOUDY    63  63 100 CALM      30.01F FOG
GOLDSBORO      LGT RAIN  57  57 100 N10       30.03S
GREENVILLE     LGT RAIN  55  52  88 CALM      30.09R
HAVELOCK       CLOUDY    66  63  90 CALM      30.05F
KENANSVILLE    LGT RAIN  62  61  96 CALM      30.04F
KINSTON        LGT RAIN  63  63 100 CALM      30.06R
NEW BERN       CLOUDY    67  61  81 CALM      30.05R
RICHLANDS      CLOUDY    63  59  88 CALM      30.04R
ROCKY MOUNT    CLOUDY    56  49  77 NW3       30.07R
WASHINGTON     CLOUDY    62  60  91 NW3       30.07R
WHITEVILLE     LGT RAIN  63  63 100 CALM      30.01R

$$

AMZ130-135-150-152-154-156-158-170-250-252-270-ANZ085-086-088-633-658-670-252200-
MARINE OBSERVATIONS

STATION/POSITION TIME  TEMP    WIND        PRES    WAVE   SWELL
                       AIR SEA DIR/SP/G            HT/PER HT/PER
                 (UTC) (F)     (DEG/KT/KT) (MB)    (FT/S) (FT/S)
CHESAPEAKE LIGHT 2000   55      10/ 11/ 12 1016.7
64 E VA BEACH    2100   63 64  250/  4/  8 1016.7    4/ 8   3/ 8
DUCK             2100   60 59  230/  3/  5 1015.9
2 E DUCK         2100      58                N/A     3/ 8   2/11
10 NE DUCK       2100      59                N/A     4/ 8   2/11
OREGON INLET     2100   60 58  180/  5/  6 1018.3
13E OREGON INLT  2100      62                N/A     3/ 9   2/11
HATTERAS CG      2100   63 63  160/  2/  3 1017.8
DIAMOND BUOY     2100   68     280/  6/ 10 1018.3    5/ 8   5/ 8
17 S OCRACOKE    NOT AVBL
CAPE LOOKOUT     2000   62     140/  2/  2 1017.5
BEAUFORT LAB     2100   63 58  120/  5/  6 1015.7
30 SE NEW RIVER  2100   66 69   90/  6/  8 1017.1    4/ 9   3/ 9
5 SE WRIGHTSVLE  2000   58 59  120/  8/  8 1015.4
225 S CAPE HAT   2047   75 74  190/ 17/ 21 1017.6    7/ 9   3/ 9
41 SE CHARLESTON 2100   67 74   50/  6/  8 1014.9    5/ 9   5/ 9

$$


USA.gov is the U.S. government's official web portal to all federal, state and local government web resources and services.